Regional Weather Roundup
Issued by NWS San Angelo, TX

Home | Current Version | Previous Version | Text Only | Print | Product List | Glossary On
Versions: 1 2 3 4 5 6 7 8 9 10 11 12 13 14 15 16 17 18 19 20 21 22 23 24 25 26 27 28 29 30 31 32 33 34 35 36 37 38 39 40 41 42 43 44 45 46 47 48 49 50
000
ASUS44 KSJT 290110
RWRSJT
WEST CENTRAL TEXAS REGIONAL WEATHER ROUNDUP
NATIONAL WEATHER SERVICE SAN ANGELO TX
800 PM CDT THU AUG 28 2014

NOTE: "FAIR" INDICATES FEW OR NO CLOUDS BELOW 12,000 FEET WITH NO
SIGNIFICANT WEATHER AND/OR OBSTRUCTIONS TO VISIBILITY.

TXZ049-054-064>066-071>073-076>078-098-099-113-114-127-128-139-140-
154-155-168>170-290200
...LOCATIONS ACROSS WEST CENTRAL TEXAS...

CITY           SKY/WX    TMP DP  RH WIND       PRES   REMARKS
SAN ANGELO     PTCLDY    92  57  30 SE8       29.84R
ABILENE        CLEAR     92  58  31 S13       29.85R
DYESS AFB      PTCLDY    91  60  34 SE14      29.84R
JUNCTION       CLEAR     90  61  37 SE6       29.84F
SWEETWATER     PTCLDY    91  56  31 SE12      29.89R
BROWNWOOD      CLEAR     91  57  31 SE8       29.84S
COLEMAN        PTCLDY    91  53  26 SE8       29.85S
SONORA         MOCLDY    91  59  33 CALM      29.91R
OZONA          FAIR      91  55  29 S10       29.90R
BRADY          CLEAR     90  57  33 SE6       29.85S
$$

TEXAS PANHANDLE/OKLAHOMA PANHANDLE

CITY           SKY/WX    TMP DP  RH WIND       PRES   REMARKS
AMARILLO       MOCLDY    72  61  68 SE12      29.96S
BORGER         MOCLDY    83  57  41 S12       29.92S
CANADIAN       CLOUDY    77  68  73 NE3       29.90R
DALHART        MOCLDY    73  51  46 N9        30.00F
DUMAS          MOCLDY    72  53  50 N21G32    29.97F
GUYMON         NOT AVBL
HEREFORD       MOCLDY    78  64  61 E12       29.96R
PAMPA          CLOUDY    74  63  67 S10       29.95F
PERRYTON       MOCLDY    76  66  71 SE5       29.93R
$$

SOUTHERN PANHANDLE/SOUTH PLAINS/ROLLING PLAINS

CITY           SKY/WX    TMP DP  RH WIND       PRES   REMARKS
LUBBOCK        MOCLDY    81  64  56 S6        29.90R
SNYDER         MOCLDY    91  60  34 S13G21    29.86S
CHILDRESS      CLOUDY    68  65  90 SE14      29.87F
SEMINOLE       PTCLDY    88  56  33 SE15      29.91S
$$

PERMIAN BASIN

CITY           SKY/WX    TMP DP  RH WIND       PRES   REMARKS
MIDLAND        PTCLDY    79  66  64 SE17      29.89F
ODESSA         PTCLDY    86  60  41 SE16      29.89F
WINK           CLEAR     97  51  21 S5        29.85R
$$

FAR WEST/SOUTHWEST MOUNTAINS/TRANS PECOS

CITY           SKY/WX    TMP DP  RH WIND       PRES   REMARKS
ALPINE         PTCLDY    78  60  52 S9        30.08S
DRYDEN           N/A     89  65  44 SW22      29.87R
EL PASO        PTCLDY    91  48  22 N5        29.97S
FORT STOCKTON  PTCLDY    86  58  38 S12       29.89F
GUADALUPE PASS CLEAR     83  39  21 W22G30    30.09S
MARFA          PTCLDY    81  55  41 E12       30.07S
PECOS          TSTM      80  63  56 SE17      29.84S
$$

DALLAS/FORT WORTH METROPLEX

CITY           SKY/WX    TMP DP  RH WIND       PRES   REMARKS
DFW AIRPORT    PTCLDY    91  62  37 S9        29.83S
FTW MEACHAM    CLEAR     92  61  35 SE12      29.82F
DAL-EXECUTIVE  CLEAR     91  63  39 SE7       29.83S
GRAND PRAIRIE  NOT AVBL
ADDISON        PTCLDY    91  61  35 SE13      29.84S
MESQUITE       PTCLDY    90  63  40 SE5       29.84R
LANCASTER      CLEAR     89  62  40 SE5       29.84S
$$

NORTH CENTRAL TEXAS

CITY           SKY/WX    TMP DP  RH WIND       PRES   REMARKS
SHRMAN/DENISON PTCLDY    89  62  39 SE5       29.87R
GAINESVILLE    PTCLDY    85  65  50 E3        29.88S
BRIDGEPORT     CLEAR     90  56  31 SE6       29.86S
DENTON         CLEAR     89  60  37 SE5       29.84R
WAXAHACHIE     CLEAR     89  61  38 SE5       29.85S
GRANBURY       CLEAR     93  61  33 SE9       29.83S
$$

WESTERN NORTH TEXAS

CITY           SKY/WX    TMP DP  RH WIND       PRES   REMARKS
WICHITA FALLS  CLOUDY    77  71  82 E14       29.83F
VERNON         CLOUDY    76  66  71 NW21G28   29.95R
BRECKENRIDGE   CLEAR     94  54  25 S12       29.83R
COMANCHE         N/A     90  57  32 SE8       29.85S
$$

CENTRAL AND SOUTH CENTRAL TEXAS

CITY           SKY/WX    TMP DP  RH WIND       PRES   REMARKS
AUSTIN/BERGSTM PTCLDY    85  70  60 S12       29.85R
WACO           CLEAR     88  65  46 SE14      29.84R
HILLSBORO      CLEAR     89  65  44 SE10      29.85R
TEMPLE         CLEAR     88  64  45 SE14      29.85R
KILLEEN-GRAY   PTCLDY    88  68  51 SE13      29.85S
FORT HOOD      CLEAR     89  68  49 SE9       29.85S
GEORGETOWN     CLEAR     90  72  55 S7        29.84S
LAGO VISTA     FAIR      86  68  54 SE9G16    29.88R
SAN MARCOS     CLEAR     82  68  61 SE10      29.87R
NEW BRAUNFELS  CLEAR     84  72  67 SE8       29.84S
RANDOLPH AFB   CLEAR     83  74  73 E9        29.85S
SAN ANTONIO    PTCLDY    87  70  56 E12       29.85R
STINSON        CLEAR     89  69  51 SE15      29.82R
PLEASANTON     NOT AVBL
LA GRANGE      MOCLDY    89  73  59 SE7       29.83S
GIDDINGS       PTCLDY    86  69  55 SE5       29.89R
$$

EAST TEXAS

CITY           SKY/WX    TMP DP  RH WIND       PRES   REMARKS
PARIS          CLEAR     86  66  51 E6        29.88R
CLARKSVILLE    PTCLDY    87  68  53 NE3       29.88R
TYLER          CLEAR     87  70  56 S9        29.87R
LONGVIEW       CLEAR     86  69  56 S9        29.87R
PALESTINE      CLEAR     85  72  66 SE6       29.88R
NACOGDOCHES    CLEAR     82  72  69 S5        29.89R
$$

TEXAS HILL COUNTRY AND EDWARDS PLATEAU

CITY           SKY/WX    TMP DP  RH WIND       PRES   REMARKS
LLANO          CLEAR     90  68  48 SE12      29.86S
HORSESHOE BAY  FAIR      87  66  50 SE9G18    29.85R
KERRVILLE      MOCLDY    86  68  54 SE13      29.87S
FREDERICKSBRG  CLEAR     85  67  55 SE9G21    29.88R
ROCKSPRINGS    CLEAR     88  59  37 SE9       29.91S
HONDO            N/A    N/A N/A N/A MISG      29.84S
UVALDE         PTCLDY    93  70  46 SE14      29.81S
DEL RIO        CLEAR     96  60  30 SE8       29.79R
$$

SOUTHEAST TEXAS

CITY           SKY/WX    TMP DP  RH WIND       PRES   REMARKS
COLLEGE STN    PTCLDY    84  72  67 E10       29.86R
CALDWELL       CLEAR     84  66  54 SE9       29.89R
CROCKETT       CLEAR     84  75  74 SE5       29.91R
BRENHAM        CLEAR     86  69  57 SE6       29.87R
HUNTSVILLE     MOCLDY    82  73  74 VRB3      29.88S
CONROE         PTCLDY    83  71  67 SE9       29.90R
HOUSTON BUSH   PTCLDY    82  73  74 SE8       29.89R
HOUSTON HOBBY  PTCLDY    81  74  79 E6        29.88S
PERLAND        PTCLDY    83  74  74 E9G26     29.90S
WHARTON        MOCLDY    80  73  79 E8        29.88S
$$

THE UPPER TEXAS COAST

CITY           SKY/WX    TMP DP  RH WIND       PRES   REMARKS
ORANGE         PTCLDY    83  73  71 SE3       29.92R
PORT ARTHUR    PTCLDY    83  75  77 E9        29.90R
GALVESTON      MOCLDY    81  74  79 SE10G21   29.89F
ANGLETON       MOCLDY    79  74  84 E5        29.88F
BAY CITY       MOCLDY    82  82 100 CALM      29.87S
$$

TEXAS COASTAL BEND, RIO GRANDE PLAINS DEEP SOUTH TEXAS

CITY           SKY/WX    TMP DP  RH WIND       PRES   REMARKS
VICTORIA       MOCLDY    86  75  69 SE12      29.85F
BEEVILLE       FAIR      85  74  68 E6        29.83R
ROCKPORT       MOCLDY    83  75  77 E17       29.82F
PORT ARANSAS   MOCLDY    82  77  83 E15       29.82S
PORT LAVACA    MOCLDY    82  75  78 E10       29.84S
CORPUS CHRISTI MOCLDY    85  75  72 E20       29.81F
KINGSVILLE NAS MOCLDY    86  76  71 E14       29.81S
COTULLA        CLEAR     91  67  44 SE16      29.80S
LAREDO         CLEAR     90  71  53 E16       29.82R
BROWNSVILLE    PTCLDY    85  75  72 S9        29.77R
PORT ISABEL    PTCLDY    87  75  67 S14       29.76R
HEBBRONVILLE   CLEAR     85  70  59 E15       29.83S
MCALLEN        CLEAR     89  73  59 NE13G18   29.77R
WESLACO        PTCLDY    87  72  62 NE9       29.77R
FALFURRIAS     MOCLDY    82  72  71 NE14G20   29.80S
EDINBURG       PTCLDY    89  71  55 NE13      29.78R
$$


USA.gov is the U.S. government's official web portal to all federal, state and local government web resources and services.